Tracking 31027 objects as of 19-Jul-2025
HD Live streaming from Space Station
objects crossing your sky now

STARLINK-11233

Track STARLINK-11233 now!
10-day predictions
STARLINK-11233 is classified as:


NORAD ID: 61061
Int'l Code: 2024-164M
Perigee: 366.5 km
Apogee: 367.2 km
Inclination: 53.2 °
Period: 91.7 minutes
Semi major axis: 6737 km
RCS: Unknown
Launch date: September 13, 2024
Source: United States (US)
Launch site: AIR FORCE WESTERN TEST RANGE (AFWTR)
Your satellite tracking list
FENGYUN 1C DEB
Track 1 satellite(s)




NASA's NSSDC Master Catalog

Two Line Element Set (TLE):
1 61061U 24164M   25198.53676016 -.00000487  00000-0  83387-6 0  9995
2 61061  53.1592  30.6209 0000518  72.7011 287.4064 15.69710969 48481
Source of the keplerian elements: AFSPC